Peoria, IL

4:46 AM CDT on May 27, 2017 (GMT -0500)
Greater Peoria Regional

Weather History for KPIA - August, 2014

Change the Weather History Date:

Tuesday, August 19, 2014

  Actual Average Record
Temperature  
Mean Temperature 78 °F 74 °F  
Max Temperature 86 °F 84 °F 100 °F (1983)
Min Temperature 69 °F 64 °F 51 °F (1950)
Degree Days  
Heating Degree Days 0 0  
Month to date heating degree days 0 0  
Since 1 June heating degree days 2 19  
Since 1 July heating degree days 2 1  
Cooling Degree Days 13 9  
Month to date cooling degree days 164 180  
Year to date cooling degree days 846 811  
Since 1 June cooling degree days 688 730  
Growing Degree Days 28 (Base 50)    
Moisture  
Dew Point 67 °F    
Average Humidity 74    
Maximum Humidity 90    
Minimum Humidity 58    
Precipitation  
Precipitation 0.94 in 0.10 in 2.38 in (1924)
Month to date precipitation 4.23 1.97  
Year to date precipitation 27.37 23.68  
Snow  
Snow 0.00 in 0.00 in 0.00 in ()
Month to date snowfall 0.0 0.0  
Since 1 June snowfall 0.0 0.0  
Since 1 July snowfall 0.0 0.0  
Snow Depth 0.00 in    
Sea Level Pressure  
Sea Level Pressure 29.79 in    
Wind  
Wind Speed 6 mph (WSW)    
Max Wind Speed 29 mph    
Max Gust Speed 40 mph    
Visibility 6 miles    
Events Rain , Thunderstorm    
T = Trace of Precipitation, MM = Missing Value Source: NWS Daily Summary

Daily Weather History Graph

Daily Weather History Graph

Search for Another Location

Airport or City:

Trip Planner

Search our weather history database for the weather conditions in past years. The results will help you decide how hot, cold, wet, or windy it might be!

Date:

Astronomy

Aug. 19, 2014 Rise Set
Actual Time 6:13 AM CDT 7:50 PM CDT
Civil Twilight 5:44 AM CDT 8:19 PM CDT
Nautical Twilight 5:08 AM CDT 8:54 PM CDT
Astronomical Twilight 4:31 AM CDT 9:31 PM CDT
Moon 1:04 AM CDT (8/19) 3:48 PM CDT (8/19)
Length of Visible Light 14h 35m
Length of Day
13h 37m
Waning Crescent, 29% of the Moon is Illuminated
Aug 19
Waning Crescent
Aug 25
New
Sep 2
First Quarter
Sep 8
Full
Sep 15
Last Quarter

Hourly Weather History & Observations

Time (CDT) Temp. Heat Index Dew Point Humidity Pressure Visibility Wind Dir Wind Speed Gust Speed Precip Events Conditions
12:54 AM 72.0 °F - 68.0 °F 87% 29.79 in 5.0 mi SSW 4.6 mph - N/A   Clear
1:54 AM 71.1 °F - 66.9 °F 87% 29.78 in 4.0 mi South 4.6 mph - N/A   Clear
2:54 AM 71.1 °F - 66.9 °F 87% 29.78 in 5.0 mi Calm Calm - N/A   Partly Cloudy
3:54 AM 70.0 °F - 66.9 °F 90% 29.77 in 5.0 mi South 4.6 mph - N/A   Scattered Clouds
4:54 AM 70.0 °F - 66.0 °F 87% 29.76 in 4.0 mi SSW 5.8 mph - N/A   Clear
5:54 AM 70.0 °F - 66.9 °F 90% 29.75 in 4.0 mi SSW 6.9 mph - N/A   Clear
6:54 AM 71.1 °F - 66.9 °F 87% 29.76 in 3.0 mi SSW 6.9 mph - N/A   Clear
7:54 AM 73.0 °F - 68.0 °F 84% 29.76 in 3.0 mi South 9.2 mph - N/A   Haze
8:54 AM 73.9 °F - 69.1 °F 85% 29.77 in 6.0 mi SW 9.2 mph - N/A   Haze
9:54 AM 73.9 °F - 68.0 °F 82% 29.79 in 6.0 mi SW 9.2 mph - N/A Thunderstorm Haze
10:00 AM 73.9 °F - 68.0 °F 82% 29.82 in 7.0 mi WSW 19.6 mph 29.9 mph N/A Thunderstorm Thunderstorm
10:11 AM 71.1 °F - 66.0 °F 84% 29.84 in 2.0 mi WNW 18.4 mph 39.1 mph 0.01 in Rain , Thunderstorm Heavy Thunderstorms and Rain
10:13 AM 70.0 °F - 66.0 °F 87% 29.84 in 1.5 mi West 16.1 mph 39.1 mph 0.03 in Rain , Thunderstorm Heavy Thunderstorms and Rain
10:15 AM 70.0 °F - 66.0 °F 87% 29.85 in 1.0 mi West 19.6 mph 35.7 mph 0.07 in Rain , Thunderstorm Heavy Thunderstorms and Rain
10:17 AM 70.0 °F - 66.0 °F 87% 29.84 in 0.8 mi West 17.3 mph 32.2 mph 0.11 in Rain , Thunderstorm Heavy Thunderstorms and Rain
10:37 AM 69.1 °F - 64.9 °F 87% 29.83 in 1.5 mi West 10.4 mph 19.6 mph 0.75 in Rain , Thunderstorm Thunderstorms and Rain
10:39 AM 70.0 °F - 64.9 °F 84% 29.84 in 3.0 mi West 10.4 mph - 0.76 in Rain , Thunderstorm Thunderstorms and Rain
10:49 AM 71.6 °F - 64.4 °F 78% 29.84 in 2.5 mi West 13.8 mph - 0.79 in Rain , Thunderstorm Heavy Thunderstorms and Rain
10:54 AM 70.0 °F - 64.9 °F 84% 29.83 in 3.0 mi WSW 9.2 mph - 0.82 in Rain , Thunderstorm Thunderstorms and Rain
11:03 AM 70.0 °F - 66.0 °F 87% 29.83 in 4.0 mi WSW 8.1 mph - 0.01 in Rain Rain
11:08 AM 70.0 °F - 66.0 °F 87% 29.83 in 2.5 mi WSW 9.2 mph - 0.03 in Rain , Thunderstorm Rain
11:27 AM 70.0 °F - 66.0 °F 87% 29.82 in 3.0 mi WSW 10.4 mph - 0.09 in Rain , Thunderstorm Rain
11:44 AM 71.1 °F - 66.0 °F 84% 29.81 in 8.0 mi SSW 5.8 mph - 0.11 in Rain Light Rain
11:54 AM 71.1 °F - 66.9 °F 87% 29.79 in 10.0 mi Calm Calm - 0.12 in Rain Light Rain
12:54 PM 77.0 °F - 66.0 °F 69% 29.76 in 10.0 mi WSW 4.6 mph - 0.00 in   Clear
1:54 PM 80.1 °F 82.3 °F 66.9 °F 64% 29.75 in 10.0 mi WSW 5.8 mph - N/A   Clear
2:54 PM 82.9 °F 85.4 °F 66.9 °F 58% 29.75 in 10.0 mi WSW 12.7 mph - N/A   Scattered Clouds
3:54 PM 84.9 °F 88.2 °F 68.0 °F 57% 29.75 in 10.0 mi West 11.5 mph - N/A   Partly Cloudy
4:54 PM 84.9 °F 88.2 °F 68.0 °F 57% 29.75 in 10.0 mi WSW 10.4 mph - N/A   Partly Cloudy
5:54 PM 84.0 °F 87.0 °F 68.0 °F 58% 29.75 in 10.0 mi WSW 10.4 mph - N/A   Clear
6:54 PM 82.0 °F 85.5 °F 69.1 °F 65% 29.75 in 10.0 mi SW 8.1 mph - N/A   Clear
7:54 PM 78.1 °F - 70.0 °F 76% 29.75 in 10.0 mi WSW 4.6 mph - N/A   Clear
8:54 PM 75.9 °F - 69.1 °F 79% 29.78 in 10.0 mi WSW 4.6 mph - N/A   Clear
9:54 PM 75.0 °F - 69.1 °F 82% 29.80 in 10.0 mi West 3.5 mph - N/A   Clear
10:54 PM 73.9 °F - 69.1 °F 85% 29.81 in 10.0 mi WSW 4.6 mph - N/A   Clear
11:54 PM 73.0 °F - 68.0 °F 84% 29.82 in 10.0 mi Calm Calm - N/A   Clear